Location: Avenches
(46.8809°N, 7.0410°E)
Time: 01:05:04
(UTC+00:00)

H-2A R/B - Pass Details

Date: 30 March 2020
Orbit: 734 x 836 km, 98.2° (Epoch: 30 May)

Event Time Altitude Azimuth Distance (km) Brightness Sun altitude
Rises 20:07:54 0° 201° (SSW) 3,337 5.2 -21.5°
Reaches altitude 10° 20:10:43 10° 215° (SW) 2,395 4.6 -21.9°
Maximum altitude 20:14:54 24° 267° (W) 1,628 4.2 -22.5°
Drops below altitude 10° 20:19:03 10° 320° (NW) 2,357 5.5 -23.0°
Sets 20:21:49 0° 335° (NNW) 3,272 6.2 -23.4°
